Regional Weather Roundup
Issued by NWS

Home | Current Version | Previous Version | Graphics & Text | Print | Product List | Glossary On
Versions: 1 2 3 4 5 6 7 8 9 10 11 12 13 14 15 16 17 18 19 20 21 22 23 24 25 26 27 28 29 30 31 32 33 34 35 36 37 38 39 40 41 42 43 44 45 46 47 48 49 50
000
ASUS43 KMPX 261610
RWRMN
WEATHER ROUNDUP FOR MINNESOTA
NATIONAL WEATHER SERVICE TWIN CITIES/CHANHASSEN MN
1100 AM CDT MON SEP 26 2016


NOTE: "FAIR" INDICATES FEW OR NO CLOUDS BELOW 12,000 FEET WITH NO
SIGNIFICANT WEATHER AND/OR OBSTRUCTIONS TO VISIBILITY. N/A MEANS
CURRENT SKY AND/OR WEATHER CONDITIONS ARE NOT AVAILABLE.

MNZ060>063-068>070-261700-
   Twin Cities Metro

CITY           SKY/WX    TMP DP  RH WIND       PRES   REMARKS
TWIN CITIES    SUNNY     59  40  49 W20G30    29.92F
ST PAUL        SUNNY     59  41  51 W16       29.92F
CRYSTAL        SUNNY     59  38  45 W14G26    29.91F
BLAINE         SUNNY     61  43  51 W17G24    29.91S
LAKEVILLE      SUNNY     57  41  54 W12G18    29.95S
EDEN PRAIRIE   SUNNY     60  39  45 W21G28    29.93F
LAKEVILLE      SUNNY     57  41  54 W12G18    29.95S
SOUTH ST PAUL  SUNNY     59  40  49 W16G22    29.92F
LAKE ELMO      FAIR      59  41  51 W18G31    29.91F
$$
MNZ001>005-007-008-013>017-022>024-027-028-261700-
   Northwest Minnesota

CITY           SKY/WX    TMP DP  RH WIND       PRES   REMARKS
BEMIDJI        MOSUNNY   54  40  58 W21G35    29.84F
HALLOCK        SUNNY     55  39  54 NW29G37   29.88R
ROSEAU         CLOUDY    54  45  71 NW21G26   29.80R
WARROAD        CLOUDY    52  45  76 W18       29.77F
THIEF RVR FALL SUNNY     54  40  59 NW22G30   29.88F
CROOKSTON      SUNNY     57  43  58 NW23G33   29.92S
FOSSTON        SUNNY     54  39  58 W23G29    29.89F
DETROIT LAKES  SUNNY     55  37  50 NW22G31   29.94F
MOORHEAD       SUNNY     57  37  47 W24       29.98F
PARK RAPIDS    SUNNY     56  37  49 NW26G35   29.88F
MAHNOMEN       FAIR      55  41  60 W26       29.91F
$$
MNZ006-009>011-018-025>026-261700-
   North Central Minnesota

CITY           SKY/WX    TMP DP  RH WIND       PRES   REMARKS
BAUDETTE       CLOUDY    49  43  80 W16G24    29.73S
FLAG ISLAND    CLOUDY    52  45  76 NW31G37   29.70S
INTL FALLS     CLOUDY    49  45  86 W15G33    29.66S
WASKISH        CLOUDY    52  43  71 W17G31    29.77F
BIG FORK       LGT RAIN  46  45  93 W10G22    29.75S
GRAND RAPIDS   CLOUDY    51  42  71 W16G29    29.79S
ORR            CLOUDY    46  43  87 W15G25    29.65S
COOK           CLOUDY    46  45  93 W20G25    29.68S
WALKER         FAIR      51  38  62 W12G23    29.85S
$$
MNZ012-019>021-037-261700-
   Northeast Minnesota

CITY           SKY/WX    TMP DP  RH WIND       PRES   REMARKS
DULUTH         CLOUDY    51  43  74 W24G35    29.71R
ELY            LGT RAIN  46  45  93 W20G28    29.61S
HIBBING        LGT RAIN  46  43  89 W16G28    29.72R
EVELETH        LGT RAIN  47  44  88 W17G28    29.70F
DULUTH HARBOR  CLOUDY    55  46  71 W21G30    29.72S
TWO HARBORS    CLOUDY    54  48  82 W16       29.66S
SILVER BAY     DRIZZLE   52  46  82 W7        29.61S
GRAND MARAIS     N/A     56  51  84 W8        29.52S
G MARAIS ARPRT LGT RAIN  48  45  87 W9G21     29.52S
$$
MNZ029>031-032-039>041-046>048-054>057-064-261700-
   West Central Minnesota

CITY           SKY/WX    TMP DP  RH WIND       PRES   REMARKS
FERGUS FALLS   SUNNY     55  39  54 W23G29    30.01F
MORRIS         SUNNY     61  37  41 NW25G32   30.01S
ALEXANDRIA     SUNNY     56  39  53 W20G31    29.99S
ELBOW LAKE     FAIR      56  38  51 NW17      30.01S
GLENWOOD       SUNNY     55  39  54 W18G36    29.99S
BENSON         SUNNY     63  34  34 NW24      30.02S
MADISON          N/A     64  37  36 W23G30    30.06S
WILLMAR        FAIR      61  37  41 NW23G32   30.02S
$$
MNZ033>034-036-042>043-049>051-058-059-261700-
   Central Minnesota

CITY           SKY/WX    TMP DP  RH WIND       PRES   REMARKS
ST CLOUD       MOSUNNY   57  40  52 NW25G38   29.93S
SAUK CENTRE    FAIR      55  38  53 W24G30    29.97S
PAYNESVILLE    SUNNY     57  38  48 W20G28    29.99R
AITKIN         MOSUNNY   55  39  54 W10G18    29.82S
PINE RIVER     SUNNY     54  41  62 NW17G28   29.90S
BRAINERD       SUNNY     54  40  59 NW18G33   29.88S
STAPLES        SUNNY     55  37  50 NW23G30   29.91S
LITTLE FALLS   MOSUNNY   54  36  50 NW20G28   29.92S
LITCHFIELD     SUNNY     57  39  51 NW23G30   29.98S
BUFFALO        SUNNY     57  39  51 W23G29    29.96R
MAPLE LAKE     SUNNY     58  42  55 NW17G28   29.96R
HUTCHINSON     SUNNY     60  40  47 W22G30    29.99S
$$
MNZ037-044-045-052-053-261700-
   East Central Minnesota

CITY           SKY/WX    TMP DP  RH WIND       PRES   REMARKS
PRINCETON      PTSUNNY   57  41  54 W22G37    29.91S
MORA           PTSUNNY   54  37  54 NW15G28   29.87F
CAMBRIDGE      PTSUNNY   59  43  55 W28G35    29.88S
MOOSE LAKE     MOSUNNY   54  41  62 W17G31    29.79R
HINCKLEY       CLOUDY    55  41  58 W13G24    29.83F
CLOQUET        CLOUDY    52  41  66 W20G31    29.75R
MCGREGOR       CLOUDY    54  43  66 W15G29    29.81S
$$
MNZ071>073-080-081-089-090-097-098-261700-
   Southwest Minnesota

CITY           SKY/WX    TMP DP  RH WIND       PRES   REMARKS
MONTEVIDEO     SUNNY     63  36  36 N20G26    30.05F
GRANITE FALLS  SUNNY     64  37  36 W23G29    30.07S
CANBY          SUNNY     61  36  39 NW24G31   30.09S
MARSHALL       SUNNY     61  35  37 NW22G32   30.07S
REDWOOD FALLS  SUNNY     61  35  37 W22G32    30.03S
OLIVIA         SUNNY     61  34  36 NW21G30   30.01S
PIPESTONE      SUNNY     59  36  41 NW18      30.12F
WINDOM         SUNNY     63  34  34 W20G31    30.08S
WORTHINGTON    SUNNY     58  38  47 W20       30.12F
JACKSON        SUNNY     61  30  31 W21G30    30.10S
TRACY          SUNNY     62  36  38 W15G29    30.09S
$$
MNZ065>067-074>077-082>085-091>093-261700-
   South Central Minnesota

CITY           SKY/WX    TMP DP  RH WIND       PRES   REMARKS
MANKATO        SUNNY     60  38  43 W16       30.02F
NEW ULM        SUNNY     61  36  39 NW23G30   30.03S
ST JAMES       SUNNY     63  34  34 W22G32    30.06S
FAIRMONT       SUNNY     61  35  37 NW23G29   30.07F
GLENCOE        SUNNY     60  41  50 W21G31    29.97F
FARIBAULT      SUNNY     61  39  44 W17G25    29.98F
OWATONNA       SUNNY     61  36  39 W16G24    30.00F
WASECA         SUNNY     59  36  41 W17G24    30.03S
ALBERT LEA     SUNNY     61  34  36 W15G24    30.03S
$$
MNZ078>079-086>088-094>096-261700-
   Southeast Minnesota

CITY           SKY/WX    TMP DP  RH WIND       PRES   REMARKS
ROCHESTER      SUNNY     60  39  45 W18G29    29.99F
RED WING       SUNNY     61  37  41 W18G25    29.91F
STANTON        SUNNY     60  39  47 W15G25    29.95F
DODGE CENTER   SUNNY     59  37  44 W21G29    29.99S
WINONA         SUNNY     61  39  44 NW10G18   29.94S
AUSTIN         SUNNY     59  36  41 W21G28    30.01F
PRESTON        SUNNY     58  37  45 W20G32    30.00S
$$
ABBREVIATIONS USED IN REMARKS
   TC - TEMPERATURES IN CELSIUS
  WCI - WIND CHILL INDEX
   HX - HEAT INDEX
  VSB - VISIBILITY
$$



USA.gov is the U.S. government's official web portal to all federal, state and local government web resources and services.